Location: Mountain_View
(35.6670°N, 81.4000°W)
Time: 23:02:04
(UTC-05:00)

Amateur Radio Satellites - All Passes

Search period start: 26 February 2015 22:32
Search period end: 27 February 2015 22:32
Location: Mountain_View, 35.6670°N, 81.4000°W

Satellite Date Start Highest point End Downlink Frequencies (MHz)
Time Altitude Azimuth
ESTCUBE 1 26 Feb 22:32:41 22:36:57 44° 73° (ENE) 22:41:17 437.505/2401.250
VELOX 1 26 Feb 22:33:47 22:38:17 79° 258° (WSW) 22:42:47 145.980
QB50P2 26 Feb 22:34:08 22:37:01 18° 93° (E) 22:40:03 145.880/145.840
DX 1 26 Feb 22:40:33 22:44:09 24° 265° (W) 22:47:39 434.975-435.025
CUBEBUG 1 26 Feb 22:41:25 22:45:41 50° 74° (ENE) 22:50:01 437.445
50 SAT 26 Feb 22:44:33 22:48:30 56° 260° (W) 22:52:27 437.505
DUCHIFAT 1 26 Feb 22:52:38 22:56:18 29° 96° (E) 23:00:00 145.980
UNISAT 6 26 Feb 22:53:19 22:57:33 60° 100° (E) 23:01:50 437.425
PCSat 26 Feb 22:54:38 22:59:07 25° 307° (NW) 23:03:33 145.827
ZACube-1 26 Feb 23:00:15 23:02:56 15° 268° (W) 23:05:24 437.345
FUNcube-1 26 Feb 23:00:39 23:03:20 15° 268° (W) 23:05:48 145.935
BUGSAT 1 26 Feb 23:05:10 23:08:51 30° 96° (E) 23:12:31 437.445
POLYITAN 1 26 Feb 23:07:16 23:11:20 46° 99° (E) 23:15:24 437.675
POPSAT HIP 1 26 Feb 23:10:05 23:14:11 49° 99° (E) 23:18:17 437.405
TIGRISAT 26 Feb 23:20:39 23:24:53 65° 285° (WNW) 23:29:08 435.000
PHONESAT 2.4 26 Feb 23:24:22 23:27:50 40° 7° (N) 23:31:15 2401.200-2431.200
SPROUT 26 Feb 23:31:20 23:35:26 42° 73° (ENE) 23:39:34 437.525
ANTELSAT 26 Feb 23:31:50 23:35:57 46° 286° (WNW) 23:40:05 437.575/2403.000
NANOSAT C BR1 26 Feb 23:34:57 23:39:11 80° 284° (WNW) 23:43:23 145.865
CUSAT 1 26 Feb 23:41:55 23:47:25 25° 94° (E) 23:52:09 437.405
TISAT 1 26 Feb 23:50:53 23:55:07 68° 77° (ENE) 23:59:24 437.305
VERMONT LUNAR 26 Feb 23:52:02 23:55:30 70° 19° (NNE) 23:58:56 437.305
RS-15 27 Feb 00:03:12 00:14:02 75° 116° (ESE) 00:24:59 29.354- 29.394
QB50P1 27 Feb 00:06:58 00:10:47 32° 288° (WNW) 00:14:32 145.935-145.965
QB50P2 27 Feb 00:09:17 00:13:02 30° 288° (WNW) 00:16:42 145.880/145.840
ESTCUBE 1 27 Feb 00:11:31 00:14:07 14° 269° (W) 00:16:30 437.505/2401.250
CUBEBUG 1 27 Feb 00:20:28 00:22:25 12° 270° (W) 00:24:08 437.445
DANDE 27 Feb 00:27:20 00:34:47 54° 96° (E) 00:40:42 436.750
DUCHIFAT 1 27 Feb 00:28:55 00:32:00 19° 290° (WNW) 00:34:56 145.980
GONETS M04 27 Feb 00:31:51 00:38:09 20° 294° (WNW) 00:44:00
UNISAT 6 27 Feb 00:33:03 00:33:56 10° 293° (WNW) 00:34:32 437.425
SWISSCUBE 27 Feb 00:39:31 00:43:51 37° 72° (ENE) 00:48:16 437.505
Oscar 19 27 Feb 00:40:33 00:42:29 12° 89° (E) 00:44:46 437.125/150
BUGSAT 1 27 Feb 00:41:13 00:44:10 18° 291° (WNW) 00:46:57 437.445
POLYITAN 1 27 Feb 00:44:53 00:46:55 13° 293° (WNW) 00:48:44 437.675
POPSAT HIP 1 27 Feb 00:47:54 00:49:43 12° 293° (WNW) 00:51:18 437.405
BEESAT 27 Feb 00:48:51 00:53:19 42° 72° (ENE) 00:57:50 436.000
PHONESAT 2.4 27 Feb 01:02:52 01:06:29 78° 205° (SSW) 01:10:04 2401.200-2431.200
SPROUT 27 Feb 01:09:25 01:11:47 14° 269° (W) 01:13:57 437.525
ITUPSAT 1 27 Feb 01:13:05 01:17:51 78° 75° (ENE) 01:22:39 437.325
CUSAT 1 27 Feb 01:23:29 01:30:16 44° 281° (W) 01:35:33 437.405
VERMONT LUNAR 27 Feb 01:30:23 01:33:14 24° 213° (SSW) 01:36:02 437.305
ITAMSAT 1 27 Feb 02:06:25 02:10:58 31° 96° (E) 02:15:35 435.822/435.867
KKS-1 27 Feb 02:09:55 02:14:20 59° 75° (ENE) 02:18:46 437.445
DANDE 27 Feb 02:12:24 02:18:13 23° 285° (WNW) 02:22:53 436.750
Oscar 19 27 Feb 02:17:18 02:22:22 64° 286° (WNW) 02:27:26 437.125/150
RS-15 27 Feb 02:18:04 02:27:33 31° 320° (NW) 02:36:57 29.354- 29.394
SWISSCUBE 27 Feb 02:18:22 02:21:52 19° 267° (W) 02:25:14 437.505
STARS 27 Feb 02:26:16 02:30:37 57° 74° (ENE) 02:34:58 437.465
BEESAT 27 Feb 02:28:17 02:31:25 17° 268° (W) 02:34:21 436.000
SO-50 27 Feb 02:30:54 02:35:21 57° 116° (ESE) 02:39:58 436.795
YUBILEINY 27 Feb 02:38:48 02:44:58 21° 66° (ENE) 02:51:32 435.215
PHONESAT 2.4 27 Feb 02:42:28 02:44:35 15° 217° (SW) 02:46:38 2401.200-2431.200
BEESAT 3 27 Feb 02:44:53 02:47:46 18° 49° (NE) 02:50:43 437.485
Gurwin Techsat 1B 27 Feb 02:52:38 02:57:55 66° 101° (E) 03:03:13 435.225
BEESAT 2 27 Feb 03:05:12 03:08:40 25° 52° (NE) 03:12:07 435.950
JAS-2 27 Feb 03:30:48 03:35:32 19° 90° (E) 03:40:52 435.910
JUGNU 27 Feb 03:38:12 03:40:33 12° 168° (SSE) 03:42:58 437.505
AO-7 27 Feb 03:43:02 03:50:11 33° 97° (E) 03:57:28 29.400- 29.500
ITAMSAT 1 27 Feb 03:45:57 03:50:24 28° 291° (WNW) 03:54:44 435.822/435.867
KKS-1 27 Feb 03:50:17 03:51:26 11° 270° (W) 03:52:16 437.445
HORYU 2 27 Feb 04:05:50 04:10:17 77° 282° (WNW) 04:14:43 437.375
STARS 27 Feb 04:06:15 04:07:31 11° 270° (W) 04:08:28 437.465
M-CUBED/EXP-1 PRIME 27 Feb 04:11:17 04:14:26 41° 256° (WSW) 04:17:36 437.505
SO-50 27 Feb 04:13:18 04:16:21 17° 315° (NW) 04:19:17 436.795
AIST 2 27 Feb 04:16:47 04:20:59 55° 58° (ENE) 04:25:05 435.215
AUBIESAT-1 27 Feb 04:16:53 04:20:00 40° 256° (WSW) 04:23:10 437.475
BEESAT 3 27 Feb 04:22:13 04:26:01 36° 246° (WSW) 04:29:44 437.485
MOZHAYETS 4 27 Feb 04:27:27 04:32:00 81° 76° (ENE) 04:36:34
YUBILEINY 27 Feb 04:33:58 04:42:48 73° 266° (W) 04:51:32 435.215
Gurwin Techsat 1B 27 Feb 04:34:34 04:37:25 14° 295° (WNW) 04:39:59 435.225
RS-15 27 Feb 04:40:36 04:45:12 13° 353° (N) 04:49:42 29.354- 29.394
BEESAT 2 27 Feb 04:43:21 04:46:48 25° 248° (WSW) 04:50:07 435.950
JAS-2 27 Feb 05:13:48 05:21:10 78° 285° (WNW) 05:29:00 435.910
SRMSAT 27 Feb 05:20:02 05:22:34 13° 169° (S) 05:25:11 437.500
JUGNU 27 Feb 05:25:07 05:28:50 17° 178° (S) 05:32:35 437.505
PRISM 27 Feb 05:31:33 05:35:03 28° 71° (ENE) 05:38:38 437.425
AO-7 27 Feb 05:35:18 05:43:14 50° 293° (WNW) 05:51:03 29.400- 29.500
AIST 2 27 Feb 05:57:46 05:59:09 11° 251° (WSW) 06:00:17 435.215
PCSat 27 Feb 06:01:56 06:05:44 19° 49° (NE) 06:09:40 145.827
CUBESAT XI-V 27 Feb 06:14:35 06:19:15 82° 77° (ENE) 06:23:59 437.345
STRAND 1 27 Feb 06:19:14 06:24:15 58° 74° (ENE) 06:29:20 437.568
YUBILEINY 27 Feb 06:36:12 06:38:20 11° 282° (WNW) 06:39:36 435.215
Cubesat XI-IV 27 Feb 06:40:13 06:45:37 72° 102° (ESE) 06:50:57 437.490
CUTE-I 27 Feb 06:50:27 06:55:51 88° 102° (ESE) 07:01:12 437.470
RS-15 27 Feb 06:56:10 07:03:56 21° 29° (NNE) 07:12:20 29.354- 29.394
JAS-2 27 Feb 07:01:41 07:05:25 14° 298° (WNW) 07:08:47 435.910
SRMSAT 27 Feb 07:07:18 07:11:02 17° 179° (S) 07:14:45 437.500
PRISM 27 Feb 07:07:33 07:10:36 19° 266° (W) 07:13:33 437.425
JUGNU 27 Feb 07:13:55 07:17:09 15° 188° (S) 07:20:19 437.505
PCSat 27 Feb 07:44:16 07:49:35 56° 248° (WSW) 07:54:51 145.827
STRAND 1 27 Feb 08:01:08 08:03:55 14° 270° (W) 08:06:24 437.568
AIST 1 27 Feb 08:13:41 08:17:55 54° 279° (W) 08:22:13
CUTE 1.7 + AOD 2 27 Feb 08:17:04 08:19:30 15° 92° (E) 08:22:07 437.475
Cubesat XI-IV 27 Feb 08:22:31 08:25:10 13° 296° (WNW) 08:27:32 437.490
DOVE 4 27 Feb 08:29:56 08:32:18 15° 91° (E) 08:34:47 437.250
CUTE-I 27 Feb 08:33:55 08:35:16 11° 297° (WNW) 08:36:15 437.470
GONETS M04 27 Feb 08:46:04 08:53:31 32° 71° (ENE) 09:01:11
BRITE-PL 27 Feb 08:47:24 08:52:00 61° 100° (E) 08:56:15 437.365/2234.400
SRMSAT 27 Feb 08:56:22 08:59:28 14° 189° (S) 09:02:31 437.500
CINEMA 3 27 Feb 09:06:45 09:09:49 20° 93° (E) 09:12:59 145.822/145.860
RS-15 27 Feb 09:07:47 09:19:11 67° 56° (NE) 09:31:08 29.354- 29.394
DELFI C3 27 Feb 09:12:14 09:14:13 14° 91° (E) 09:16:24 145.870
GOMX 1 27 Feb 09:12:29 09:16:57 77° 101° (E) 09:21:09 467.674
HO-68 27 Feb 09:13:03 09:20:14 71° 103° (ESE) 09:27:24 435.675
COMPASS 1 27 Feb 09:13:56 09:18:02 51° 99° (E) 09:22:08 437.405
AAUSAT CUBESAT 2 27 Feb 09:14:36 09:18:36 44° 98° (E) 09:22:37 437.432
O/OREOS (USA 219) 27 Feb 09:23:54 09:27:23 23° 102° (ESE) 09:30:59 437.305
UWE-3 27 Feb 09:25:22 09:27:36 15° 92° (E) 09:30:02 435.000/436.395/437.385
QB50P2 27 Feb 09:26:41 09:27:32 11° 67° (ENE) 09:28:38 145.880/145.840
ISS 27 Feb 09:27:38 09:30:13 23° 131° (SE) 09:32:52 145.825
UKube-1 27 Feb 09:31:27 09:33:22 13° 91° (E) 09:35:31 .
CANX-2 27 Feb 09:32:16 09:36:26 56° 285° (WNW) 09:40:35 2200.000
SEEDS 27 Feb 09:35:20 09:39:32 70° 284° (WNW) 09:43:44 437.485
DUCHIFAT 1 27 Feb 09:43:25 09:46:03 17° 69° (ENE) 09:48:51 145.980
UNISAT 6 27 Feb 09:49:41 09:53:46 37° 73° (ENE) 09:57:51 437.425
HUMSAT D 27 Feb 09:50:36 09:51:46 11° 90° (E) 09:53:11 437.325/437.525
CUTE 1.7 + AOD 2 27 Feb 09:51:41 09:55:37 36° 286° (WNW) 09:59:30 437.475
CUBEBUG 2 27 Feb 09:53:12 09:57:05 39° 98° (E) 10:01:00 437.445
BUGSAT 1 27 Feb 09:53:31 09:56:06 16° 69° (ENE) 09:58:51 437.445
POLYITAN 1 27 Feb 09:58:02 10:01:32 25° 71° (ENE) 10:05:07 437.675
POPSAT HIP 1 27 Feb 10:00:32 10:04:06 26° 71° (ENE) 10:07:43 437.405
DOVE 4 27 Feb 10:06:22 10:10:21 36° 287° (WNW) 10:14:08 437.250
Oscar 11 27 Feb 10:13:31 10:17:50 79° 283° (WNW) 10:22:09 145.826/435.025
TIGRISAT 27 Feb 10:16:20 10:20:48 76° 77° (ENE) 10:25:11 435.000
AISAT 27 Feb 10:17:06 10:20:11 19° 93° (E) 10:23:23 437.250
NANOSAT C BR1 27 Feb 10:24:37 10:28:45 50° 75° (ENE) 10:32:56 145.865
50 SAT 27 Feb 10:26:46 10:29:47 21° 95° (E) 10:32:54 437.505
ANTELSAT 27 Feb 10:27:42 10:32:11 77° 258° (WSW) 10:36:35 437.575/2403.000
VELOX 1 27 Feb 10:28:09 10:31:44 24° 95° (E) 10:35:24 145.980
BRITE-PL 27 Feb 10:28:35 10:29:57 11° 296° (WNW) 10:31:01 437.365/2234.400
ESTCUBE 1 27 Feb 10:30:37 10:32:08 12° 90° (E) 10:33:57 437.505/2401.250
DX 1 27 Feb 10:30:55 10:35:19 73° 103° (ESE) 10:39:38 434.975-435.025
CUBEBUG 1 27 Feb 10:35:41 10:37:08 12° 90° (E) 10:38:51 437.445
GONETS M04 27 Feb 10:42:21 10:50:42 50° 270° (W) 10:58:59
CINEMA 3 27 Feb 10:43:34 10:47:05 26° 289° (WNW) 10:50:28 145.822/145.860
DELFI C3 27 Feb 10:45:50 10:49:38 38° 286° (WNW) 10:53:25 145.870
ZACube-1 27 Feb 10:49:56 10:54:02 60° 284° (WNW) 10:58:07 437.345
FUNcube-1 27 Feb 10:50:08 10:54:14 61° 284° (WNW) 10:58:19 145.935
COMPASS 1 27 Feb 10:51:45 10:53:22 12° 292° (WNW) 10:54:44 437.405
AAUSAT CUBESAT 2 27 Feb 10:51:50 10:53:55 13° 292° (WNW) 10:55:49 437.432
QB50P1 27 Feb 10:56:17 11:00:34 65° 259° (W) 11:04:50 145.935-145.965
QB50P2 27 Feb 10:58:46 11:03:00 59° 260° (W) 11:07:16 145.880/145.840
UWE-3 27 Feb 11:00:33 11:04:22 35° 287° (WNW) 11:08:09 435.000/436.395/437.385
HO-68 27 Feb 11:02:15 11:07:22 21° 299° (WNW) 11:12:11 435.675
O/OREOS (USA 219) 27 Feb 11:02:41 11:06:40 29° 297° (WNW) 11:10:39 437.305
ISS 27 Feb 11:03:43 11:06:33 28° 326° (NW) 11:09:25 145.825
SO-50 27 Feb 11:05:27 11:09:34 26° 50° (NE) 11:13:45 436.795
UKube-1 27 Feb 11:05:40 11:09:49 45° 287° (WNW) 11:13:57 .
DANDE 27 Feb 11:16:25 11:17:19 11° 70° (ENE) 11:18:18 436.750
DUCHIFAT 1 27 Feb 11:17:41 11:21:39 36° 262° (W) 11:25:37 145.980
RS-15 27 Feb 11:21:12 11:31:04 32° 253° (WSW) 11:40:50 29.354- 29.394
HUMSAT D 27 Feb 11:23:56 11:27:53 45° 286° (WNW) 11:31:48 437.325/437.525
BUGSAT 1 27 Feb 11:27:21 11:31:20 37° 262° (W) 11:35:18 437.445
UNISAT 6 27 Feb 11:27:49 11:30:45 16° 267° (W) 11:33:27 437.425
CUBEBUG 2 27 Feb 11:31:16 11:33:31 14° 292° (WNW) 11:35:36 437.445
POLYITAN 1 27 Feb 11:33:55 11:37:26 23° 265° (W) 11:40:51 437.675
POPSAT HIP 1 27 Feb 11:36:33 11:39:59 22° 266° (W) 11:43:19 437.405
TISAT 1 27 Feb 11:40:29 11:42:27 13° 91° (E) 11:44:38 437.305
AISAT 27 Feb 11:52:54 11:56:55 33° 288° (WNW) 12:00:51 437.250
Oscar 19 27 Feb 11:54:39 11:57:21 15° 66° (ENE) 12:00:17 437.125/150
50 SAT 27 Feb 12:01:37 12:04:45 22° 289° (WNW) 12:07:49 437.505
NANOSAT C BR1 27 Feb 12:03:29 12:05:00 11° 270° (W) 12:06:14 145.865
VELOX 1 27 Feb 12:04:34 12:08:17 26° 290° (WNW) 12:11:54 145.980
ESTCUBE 1 27 Feb 12:04:58 12:09:26 54° 285° (WNW) 12:13:52 437.505/2401.250
CUSAT 1 27 Feb 12:07:12 12:09:45 48° 263° (W) 12:12:17 437.405
CUBEBUG 1 27 Feb 12:09:36 12:13:55 51° 285° (WNW) 12:18:09 437.445
SWISSCUBE 27 Feb 12:44:56 12:46:35 12° 90° (E) 12:48:33 437.505
SO-50 27 Feb 12:45:42 12:50:13 35° 246° (WSW) 12:54:38 436.795
BEESAT 27 Feb 12:53:41 12:56:02 14° 91° (E) 12:58:38 436.000
SPROUT 27 Feb 12:56:49 13:01:05 62° 284° (WNW) 13:05:17 437.525
TISAT 1 27 Feb 13:14:32 13:18:32 41° 287° (WNW) 13:22:29 437.305
ITUPSAT 1 27 Feb 13:17:21 13:21:16 25° 95° (E) 13:25:17 437.325
ITAMSAT 1 27 Feb 13:21:31 13:26:12 35° 71° (ENE) 13:30:57 435.822/435.867
Oscar 19 27 Feb 13:31:11 13:36:16 59° 259° (W) 13:41:21 437.125/150
KKS-1 27 Feb 14:05:44 14:08:00 14° 91° (E) 14:10:30 437.445
Gurwin Techsat 1B 27 Feb 14:10:44 14:16:02 78° 76° (ENE) 14:21:22 435.225
SWISSCUBE 27 Feb 14:20:10 14:24:56 60° 286° (WNW) 14:29:39 437.505
STARS 27 Feb 14:21:01 14:22:57 13° 91° (E) 14:25:07 437.465
BEESAT 27 Feb 14:29:35 14:34:15 51° 286° (WNW) 14:38:53 436.000
AO-7 27 Feb 14:38:57 14:46:13 36° 63° (ENE) 14:53:38 29.400- 29.500
ITUPSAT 1 27 Feb 14:54:59 14:59:11 29° 289° (WNW) 15:03:16 437.325
HORYU 2 27 Feb 15:01:12 15:05:37 67° 75° (ENE) 15:10:01 437.375
ITAMSAT 1 27 Feb 15:01:33 15:05:47 24° 266° (W) 15:09:55 435.822/435.867
JAS-2 27 Feb 15:24:34 15:29:08 30° 68° (ENE) 15:34:11 435.910
YUBILEINY 27 Feb 15:36:28 15:43:09 27° 85° (E) 15:50:11 435.215
KKS-1 27 Feb 15:40:43 15:44:56 43° 287° (WNW) 15:49:07 437.445
STARS 27 Feb 15:55:32 15:59:44 46° 287° (WNW) 16:03:55 437.465
M-CUBED/EXP-1 PRIME 27 Feb 15:55:33 15:58:11 16° 99° (E) 16:01:06 437.505
Gurwin Techsat 1B 27 Feb 15:55:39 15:56:43 10° 272° (W) 15:57:20 435.225
ISS 27 Feb 15:58:00 15:59:29 13° 25° (NNE) 16:01:03 145.825
AUBIESAT-1 27 Feb 16:00:38 16:03:19 17° 99° (E) 16:06:17 437.475
MOZHAYETS 4 27 Feb 16:26:12 16:29:54 24° 94° (E) 16:33:41
AO-7 27 Feb 16:30:50 16:38:50 48° 260° (W) 16:46:47 29.400- 29.500
CUTE-I 27 Feb 16:33:10 16:35:13 13° 64° (ENE) 16:37:35 437.470
JAS-2 27 Feb 17:09:40 17:14:17 29° 266° (W) 17:19:10 435.910
M-CUBED/EXP-1 PRIME 27 Feb 17:29:17 17:33:12 39° 290° (WNW) 17:37:23 437.505
YUBILEINY 27 Feb 17:30:55 17:39:29 58° 281° (WNW) 17:48:05 435.215
ISS 27 Feb 17:33:06 17:36:21 89° 26° (NNE) 17:39:36 145.825
AUBIESAT-1 27 Feb 17:34:20 17:38:16 39° 291° (WNW) 17:42:26 437.475
Cubesat XI-IV 27 Feb 17:59:17 18:04:39 87° 79° (E) 18:10:05 437.490
MOZHAYETS 4 27 Feb 18:03:08 18:07:07 28° 289° (WNW) 18:11:03
CUTE-I 27 Feb 18:09:22 18:14:43 76° 257° (WSW) 18:20:08 437.470
BEESAT 3 27 Feb 18:12:41 18:16:45 84° 119° (ESE) 18:20:55 437.485
AIST 2 27 Feb 18:12:47 18:16:10 24° 112° (ESE) 18:19:40 435.215
VERMONT LUNAR 27 Feb 18:12:59 18:16:00 28° 148° (SSE) 18:19:05 437.305
CUBESAT XI-V 27 Feb 18:14:58 18:18:51 26° 94° (E) 18:22:49 437.345
AIST 1 27 Feb 18:24:19 18:28:02 26° 76° (ENE) 18:31:46
STRAND 1 27 Feb 18:33:25 18:37:33 25° 94° (E) 18:41:46 437.568
BEESAT 2 27 Feb 18:34:15 18:38:20 65° 301° (WNW) 18:42:29 435.950
PRISM 27 Feb 18:51:47 18:56:01 72° 102° (ESE) 19:00:14 437.425
PHONESAT 2.4 27 Feb 19:29:23 19:32:56 53° 153° (SSE) 19:36:30 2401.200-2431.200
DOVE 4 27 Feb 19:32:36 19:35:30 16° 68° (ENE) 19:38:35 437.250
O/OREOS (USA 219) 27 Feb 19:36:07 19:40:02 28° 62° (ENE) 19:44:00 437.305
HO-68 27 Feb 19:38:37 19:45:03 39° 67° (ENE) 19:51:37 435.675
VERMONT LUNAR 27 Feb 19:50:20 19:53:49 62° 342° (NNW) 19:57:17 437.305
AIST 2 27 Feb 19:50:59 19:54:41 28° 307° (NW) 19:58:23 435.215
CUBESAT XI-V 27 Feb 19:52:16 19:56:16 27° 289° (WNW) 20:00:10 437.345
BRITE-PL 27 Feb 19:53:45 19:59:18 56° 75° (ENE) 20:04:45 437.365/2234.400
AIST 1 27 Feb 20:02:11 20:05:35 21° 271° (W) 20:08:50
COMPASS 1 27 Feb 20:03:11 20:06:30 24° 71° (ENE) 20:09:54 437.405
AAUSAT CUBESAT 2 27 Feb 20:03:38 20:06:42 21° 71° (ENE) 20:09:52 437.432
CINEMA 3 27 Feb 20:06:04 20:09:06 17° 69° (ENE) 20:12:15 145.822/145.860
STRAND 1 27 Feb 20:12:11 20:16:48 33° 290° (WNW) 20:21:21 437.568
GOMX 1 27 Feb 20:16:23 20:21:46 63° 76° (ENE) 20:27:01 467.674
CANX-2 27 Feb 20:22:10 20:26:22 69° 76° (ENE) 20:30:34 2200.000
UWE-3 27 Feb 20:22:26 20:22:35 10° 67° (ENE) 20:23:02 435.000/436.395/437.385
SEEDS 27 Feb 20:24:34 20:28:39 54° 76° (ENE) 20:32:45 437.485
PCSat 27 Feb 20:40:26 20:44:57 28° 109° (ESE) 20:49:36 145.827
CUTE 1.7 + AOD 2 27 Feb 20:41:17 20:45:30 77° 259° (W) 20:49:43 437.475
CUBEBUG 2 27 Feb 20:48:53 20:52:39 26° 72° (ENE) 20:56:23 437.445
Oscar 11 27 Feb 21:05:19 21:09:30 53° 75° (ENE) 21:13:43 145.826/435.025
DOVE 4 27 Feb 21:07:44 21:12:55 57° 261° (W) 21:17:54 437.250
PHONESAT 2.4 27 Feb 21:07:57 21:11:28 46° 348° (NNW) 21:14:59 2401.200-2431.200
AISAT 27 Feb 21:13:39 21:15:38 13° 67° (ENE) 21:17:52 437.250
O/OREOS (USA 219) 27 Feb 21:15:39 21:19:22 24° 257° (WSW) 21:22:58 437.305
DX 1 27 Feb 21:23:41 21:27:49 43° 73° (ENE) 21:32:00 434.975-435.025
VELOX 1 27 Feb 21:24:01 21:26:46 17° 68° (ENE) 21:29:41 145.980
HO-68 27 Feb 21:26:21 21:32:49 35° 263° (W) 21:39:12 435.675
VERMONT LUNAR 27 Feb 21:28:50 21:32:04 35° 359° (N) 21:35:19 437.305
DELFI C3 27 Feb 21:30:32 21:34:33 86° 80° (E) 21:38:37 145.870
BRITE-PL 27 Feb 21:34:17 21:38:08 18° 269° (W) 21:41:41 437.365/2234.400
AAUSAT CUBESAT 2 27 Feb 21:38:44 21:42:15 26° 265° (W) 21:45:42 437.432
COMPASS 1 27 Feb 21:38:50 21:42:11 22° 266° (W) 21:45:25 437.405
CINEMA 3 27 Feb 21:41:22 21:46:03 44° 261° (W) 21:50:34 145.822/145.860
ZACube-1 27 Feb 21:42:43 21:47:09 72° 76° (ENE) 21:51:29 437.345
FUNcube-1 27 Feb 21:42:44 21:47:09 71° 76° (ENE) 21:51:29 145.935
GONETS M04 27 Feb 21:43:24 21:51:09 40° 88° (E) 21:59:05
UWE-3 27 Feb 21:54:11 21:58:42 67° 259° (W) 22:03:07 435.000/436.395/437.385
GOMX 1 27 Feb 21:57:16 22:00:18 14° 270° (W) 22:02:59 467.674
UKube-1 27 Feb 21:57:20 22:01:41 79° 257° (WSW) 22:06:04 .
TIGRISAT 27 Feb 22:12:02 22:14:57 18° 93° (E) 22:18:01 435.000
HUMSAT D 27 Feb 22:12:38 22:16:53 82° 78° (ENE) 22:21:05 437.325/437.525
ANTELSAT 27 Feb 22:23:13 22:26:46 26° 96° (E) 22:30:26 437.575/2403.000
